Location: Bruneau Dunes Observatory
(42.9024°N, 115.6902°W)
Time: 13:16:08
(UTC-06:00)

Daily predictions for brighter satellites

Satellite Brightness Start Highest point End
(mag) Time Altitude Azimuth Time Altitude Azimuth Time Altitude Azimuth
Cosmos 2208 Rocket 4.2 19:59:00 10° SSW 20:04:28 85° WNW 20:09:56 10° NNE
SJ-6B 3.8 20:01:28 10° SE 20:04:57 28° ENE 20:08:21 10° N
Cosmos 1726 Rocket 4.0 20:02:47 10° SSE 20:06:49 38° E 20:10:50 10° NNE
Cosmos 1709 Rocket 4.1 20:04:44 10° S 20:11:01 67° E 20:17:21 10° NNE
SPOT 3 Rocket 4.1 20:07:18 10° S 20:12:24 64° WSW 20:17:32 10° NNW
DMSP B5D1-3 4.5 20:09:17 10° NNE 20:14:24 80° ESE 20:19:30 10° S
Resurs 01 Rocket 2.8 20:18:59 10° ESE 20:22:29 23° ENE 20:25:59 10° NNE
Cosmos 2292 Rocket 4.2 20:19:46 10° SSW 20:22:57 41° W 20:25:48 10° N
Cosmos 482 Debris 3.9 20:18:46 10° WNW 20:23:18 82° SW 20:25:56 10° SE
ALOS 2.5 20:21:40 10° S 20:26:19 77° WSW 20:31:01 10° NNW
ATLAS CENTAUR R/B 3.9 20:09:05 10° NW 20:26:21 71° NE 20:31:41 11° ESE
FREGAT/IRIS 2.5 20:25:16 10° SSE 20:28:17 73° ENE 20:31:19 10° N
Cosmos 1898 Rocket 3.6 20:24:54 10° NNW 20:30:07 81° WSW 20:35:16 10° SSE
Cosmos 1943 Rocket 2.3 20:26:12 10° NNW 20:31:48 80° WSW 20:37:24 10° SSE
Cosmos 1814 Rocket 3.9 20:29:38 10° S 20:34:45 67° ESE 20:39:52 10° NNE
Cosmos 2084 3.7 20:32:06 10° S 20:35:57 40° ESE 20:39:38 10° NE
Cosmos 2184 Rocket 4.3 20:30:44 10° SSE 20:36:36 44° E 20:42:34 10° NNE
H-2A R/B 2.6 20:33:06 10° SSE 20:36:47 73° ENE 20:40:32 10° N
Lacrosse 5 3.7 20:32:53 10° WNW 20:37:14 29° SW 20:41:34 10° S
USA 81 4.0 20:34:20 10° N 20:39:38 73° E 20:44:53 10° S
Meteor 2-5 Rocket 3.8 20:34:18 10° N 20:40:12 72° ENE 20:45:57 10° SSE
Cosmos 990 Rocket 3.9 20:37:24 10° NNW 20:42:37 84° ENE 20:47:44 10° SSE
Cosmos 2228 3.0 20:38:27 10° S 20:42:46 63° E 20:47:04 10° NNE
Cosmos 2058 Rocket 2.9 20:40:19 10° S 20:44:39 72° E 20:49:01 10° NNE
Cosmos 1953 Rocket 3.7 20:41:03 10° NNW 20:45:24 74° W 20:49:42 10° S
Cosmos 1606 Rocket 4.0 20:41:06 10° SSW 20:45:25 65° W 20:49:45 10° N
BREEZE-M DEB 3.9 20:36:28 10° WNW 20:46:26 63° SW 20:49:07 15° SE
Cosmos 389 Rocket 3.5 20:44:29 10° SSW 20:47:54 49° WNW 20:51:19 10° N
Cosmos 1766 3.8 20:44:43 10° SSE 20:48:18 35° E 20:51:53 10° NNE
Meteor 1-22 Rocket 4.5 20:42:58 10° SSE 20:48:26 46° E 20:53:42 10° NNE
Cosmos 2150 Rocket 4.1 20:43:23 10° NNW 20:48:44 86° WSW 20:54:07 10° SSE
MOS 1-B Rocket 4.4 20:43:24 10° SE 20:49:15 42° ENE 20:54:35 10° N
BREEZE M DEB (TANK) 3.6 20:43:06 10° W 20:50:49 48° NNW 20:53:19 13° NE
Envisat 3.5 20:48:56 14° SE 20:52:48 39° ENE 20:57:31 10° N
Cosmos 1939 Rocket 4.0 20:54:15 22° E 20:54:45 22° ENE 20:57:50 10° NNE
Cosmos 1707 3.2 20:51:15 10° NNW 20:55:09 63° W 20:59:02 10° S
Cosmos 2327 Rocket 4.4 20:54:27 10° S 21:00:28 61° E 21:06:27 10° NNE
COSMOS 2406 3.5 20:55:30 10° S 21:00:50 43° ESE 21:06:13 10° NE
Cosmos 1656 Rocket 3.7 21:06:31 10° NNW 21:12:13 85° WSW 21:16:55 15° SSE
Milstar 3 Cent rocket 4.0 21:13:48 10° S 21:14:23 10° SSE 21:14:23 10° SSE
Cosmos 841 Rocket 3.5 21:10:48 10° SSW 21:15:57 82° WNW 21:21:08 10° NNE
Cosmos 1674 4.2 21:19:57 10° NNE 21:21:54 22° NE 21:21:54 22° NE
BREEZE-M DEB (TANK) 3.4 21:13:06 10° SW 21:24:28 63° SSE 21:26:09 38° E
Cosmos 1356 Rocket 4.0 21:20:28 10° NNW 21:24:42 60° W 21:28:56 10° S
Cosmos 1805 3.2 21:26:17 57° E 21:26:17 57° E 21:30:05 10° NNE
ATLAS 2AS CENTAUR R/B 4.1 21:19:24 10° NNW 21:26:19 30° NNE 21:29:43 22° ENE
YAOGAN 6 3.8 21:30:23 29° NNE 21:30:23 29° NNE 21:32:35 10° N
CZ-2D R/B 4.1 21:27:36 13° S 21:30:48 49° W 21:34:31 10° NNW
In-Cosmos 22 4.3 21:26:44 10° NNW 21:32:26 82° W 21:37:25 14° S
Helios 1A 4.2 21:34:14 28° NE 21:34:14 28° NE 21:36:56 10° N
Cosmos 1544 3.2 21:32:03 13° SSW 21:35:15 70° W 21:38:52 10° N
NOSS 3-1 (A) 4.1 21:28:22 10° NW 21:36:01 86° SW 21:41:02 28° SSE
Centaur D AC-29 3.7 21:32:44 10° SW 21:37:28 15° SSW 21:38:54 13° S
Cosmos 1953 4.2 21:43:48 20° NNE 21:43:48 20° NNE 21:45:10 10° NNE
Cosmos 2154 Rocket 3.9 21:35:05 10° S 21:41:16 75° E 21:47:31 10° N
Resurs 1-3 4.2 21:39:14 21° S 21:42:02 56° W 21:46:22 10° NNW
Cosmos 540 Rocket 3.3 21:38:48 10° SSW 21:43:55 89° E 21:49:03 10° NNE
NOSS 3-1 (C) 4.5 21:38:41 10° NW 21:46:13 61° WSW 21:52:06 21° SSE
Cosmos 2341 Rocket 3.9 21:46:35 38° SSE 21:48:52 61° E 21:55:00 10° NNE
USA 186 4.3 21:54:25 16° NW 21:54:25 16° NW 21:55:14 10° NW
Cosmos 2278 4.5 21:49:24 10° N 21:54:21 35° NE 21:54:21 35° NE
Resurs 01 Rocket 3.1 21:55:40 15° SSW 21:58:46 35° W 22:02:50 10° NNW
Spot 2 Rocket 4.4 21:56:14 19° SSW 21:59:35 46° W 22:04:26 10° NNW
GEOS 3 Rocket 3.6 21:57:26 10° NE 22:02:52 89° NW 22:08:15 10° SW
GP-B 4.2 22:02:35 10° NNW 22:06:49 43° W 22:08:59 25° SW
Nadezhda 3 Rocket 4.4 22:07:37 10° NNW 22:13:51 63° W 22:16:51 31° SSW
FALCON 9 R/B 3.3 22:19:30 10° WSW 22:22:27 36° SSW 22:22:27 36° SSW
Cosmos 1980 Rocket 3.9 22:19:51 10° N 22:22:52 21° NNE 22:22:52 21° NNE
Cosmos 1697 Rocket 3.9 22:19:13 10° N 22:23:01 31° NNE 22:23:01 31° NNE
ERS-1 Rocket 3.8 22:31:33 44° N 22:31:33 44° N 22:34:58 10° NNW
H-2A R/B 3.6 22:32:29 25° NNE 22:32:29 25° NNE 22:34:44 10° N
Cosmos 1656 4.4 22:32:26 10° NNW 22:36:31 45° N 22:36:31 45° N
SL-8 Rocket 4.3 22:51:48 59° NNW 22:51:48 59° NNW 22:56:57 10° N
ARGOS 4.3 23:01:35 39° NNW 23:01:35 39° NNW 23:05:00 10° NNW
ATLAS 2AS CENTAUR R/B 3.2 23:10:21 10° NW 23:17:09 67° NW 23:17:09 67° NW
USA 267 4.4 23:45:57 38° NNW 23:45:57 38° NNW 23:50:20 10° NW
